Location: Saratoga Springs
(43.0831°N, 73.7850°W)
Time: 05:00:06
(UTC-05:00)

Envisat - Visible Passes

Search period start: 28 February 2024 00:00
Search period end: 09 March 2024 00:00
Orbit: 762 x 764 km, 98.3° (Epoch: 27 February)

Date Brightness Start Highest point End Pass type
(mag) Time Alt. Az. Time Alt. Az. Time Alt. Az.
28 Feb 4.9 03:20:05 10° NNE 03:21:58 23° NNE 03:21:58 23° NNE visible
28 Feb 4.9 05:00:45 10° NNW 05:02:08 13° NW 05:02:08 13° NW visible
29 Feb 5.5 02:43:08 10° NNE 02:44:22 16° NE 02:44:22 16° NE visible
29 Feb 4.5 04:22:15 10° N 04:24:32 22° NNW 04:24:32 22° NNW visible
01 Mar 4.4 03:44:31 10° N 03:46:57 28° N 03:46:57 28° N visible
02 Mar 4.9 03:07:14 10° NNE 03:09:21 25° NNE 03:09:21 25° NNE visible
02 Mar 4.7 04:47:18 10° NNW 04:49:32 17° NW 04:49:32 17° NW visible
03 Mar 5.6 02:30:31 10° NE 02:31:45 16° NE 02:31:45 16° NE visible
03 Mar 4.2 04:09:09 10° N 04:11:56 28° NNW 04:11:56 28° NNW visible
04 Mar 4.3 03:31:34 10° NNE 03:34:20 33° N 03:34:20 33° N visible
04 Mar 4.9 05:13:08 10° NW 05:14:31 12° NW 05:14:31 12° NW visible
05 Mar 5.0 02:54:27 10° NNE 02:56:45 25° NE 02:56:45 25° NE visible
05 Mar 4.4 04:34:01 10° NNW 04:36:55 22° NW 04:36:55 22° NW visible
06 Mar 5.7 02:18:01 10° NE 02:19:09 14° NE 02:19:09 14° NE visible
06 Mar 3.9 03:56:06 10° N 03:59:19 35° NNW 03:59:19 35° NNW visible
07 Mar 4.2 03:18:40 10° NNE 03:21:44 37° NNE 03:21:44 37° NNE visible
07 Mar 4.7 04:59:18 10° NNW 05:01:54 15° WNW 05:01:54 15° WNW visible
08 Mar 5.1 02:41:44 10° NNE 02:44:08 24° NE 02:44:08 24° NE visible
08 Mar 4.0 04:20:49 10° N 04:24:18 28° NW 04:24:18 28° NW visible
